KB2FWP Weather Reports


time (UTC)temp
C
wind
direction
speed
KPH
gust
KPH
rain 1hr
cm
rain 24hr
cm
rain mn
cm
humidity
%
barometer
mb
20191015010132 16 212 0.0 0.0 0.00 0.00 0.00 83 1016.4
20191015004624 16 212 0.0 0.0 0.00 0.00 0.00 84 1016.3
20191015003116 16 214 0.0 0.0 0.00 0.00 0.00 86 1016.2
20191015001638 16 252 0.0 0.0 0.00 0.00 0.00 87 1016.1
20191015000126 16 230 0.0 0.0 0.00 0.00 0.00 88 1015.8
20191014234612 16 223 0.0 14.5 0.00 0.00 0.00 88 1015.6
20191014233156 16 272 0.0 16.1 0.00 0.00 0.00 88 1015.6
20191014231610 16 230 4.8 14.5 0.00 0.00 0.00 87 1015.5
20191014230233 16 205 6.4 12.9 0.00 0.00 0.00 87 1015.2
20191014224620 16 186 6.4 16.1 0.00 0.00 0.00 86 1015.0
20191014223153 16 213 6.4 12.9 0.00 0.00 0.00 86 1014.9
20191014221639 16 215 9.7 19.3 0.00 0.00 0.00 85 1014.8
20191014220124 17 207 8.0 16.1 0.00 0.00 0.00 84 1014.5
20191014214622 17 165 6.4 17.7 0.00 0.00 0.00 83 1014.4
20191014213121 17 207 9.7 16.1 0.00 0.00 0.00 82 1014.3
20191014211601 17 200 8.0 19.3 0.00 0.00 0.00 81 1014.2
20191014210128 17 200 12.9 20.9 0.00 0.00 0.00 81 1014.2
20191014204555 17 179 9.7 16.1 0.00 0.00 0.00 80 1014.3
20191014203123 17 208 9.7 20.9 0.00 0.00 0.00 79 1014.2
20191014201617 17 196 11.3 19.3 0.00 0.00 0.00 78 1014.3
20191014200121 18 211 11.3 19.3 0.00 0.00 0.00 76 1014.1
20191014194549 18 196 9.7 19.3 0.00 0.00 0.00 76 1014.2
20191014193120 18 188 11.3 20.9 0.00 0.00 0.00 74 1014.3
20191014191621 19 213 9.7 19.3 0.00 0.00 0.00 68 1014.1
20191014190146 19 242 11.3 22.5 0.00 0.00 0.00 69 1014.2
20191014184601 20 220 9.7 19.3 0.00 0.00 0.00 67 1014.1
20191014183107 18 229 11.3 16.1 0.00 0.00 0.00 69 1014.3
20191014181540 18 199 9.7 19.3 0.00 0.00 0.00 70 1014.5
20191014180126 18 169 9.7 20.9 0.00 0.00 0.00 70 1014.8
20191014174536 18 203 11.3 22.5 0.00 0.00 0.00 70 1015.0
20191014173102 18 203 9.7 16.1 0.00 0.00 0.00 70 1015.1
20191014171525 18 231 11.3 19.3 0.00 0.00 0.00 73 1015.4
20191014170028 18 240 11.3 17.7 0.00 0.00 0.00 73 1015.6
20191014164531 18 198 8.0 19.3 0.00 0.00 0.00 75 1015.7
20191014163017 17 217 11.3 19.3 0.00 0.00 0.00 76 1015.9
20191014161519 18 257 12.9 17.7 0.00 0.00 0.00 75 1016.2
20191014160015 18 261 11.3 17.7 0.00 0.00 0.00 72 1016.4
20191014154517 18 278 11.3 17.7 0.00 0.00 0.00 74 1016.5
20191014153012 18 184 8.0 14.5 0.00 0.00 0.00 79 1016.7
20191014151515 17 214 6.4 12.9 0.00 0.00 0.00 78 1016.7
20191014150051 17 242 0.0 9.7 0.00 0.00 0.00 80 1016.8
20191014144510 16 299 3.2 6.4 0.00 0.00 0.00 84 1016.8
20191014143006 15 301 0.0 0.0 0.00 0.00 0.00 87 1017.0
20191014141512 15 261 0.0 0.0 0.00 0.00 0.00 89 1017.2
20191014140156 15 271 0.0 0.0 0.00 0.00 0.00 90 1017.3
20191014134651 15 263 0.0 0.0 0.00 0.00 0.00 89 1017.3
20191014133133 15 207 0.0 0.0 0.00 0.00 0.00 90 1017.3
20191014131704 14 61 0.0 0.0 0.00 0.00 0.00 90 1017.1
20191014130203 14 61 0.0 0.0 0.00 0.00 0.00 91 1016.9
20191014124655 14 61 0.0 0.0 0.00 0.00 0.00 91 1016.7
20191014123252 14 59 0.0 0.0 0.00 0.00 0.00 91 1016.7
20191014121643 13 337 0.0 0.0 0.00 0.00 0.00 91 1016.8
20191014120238 13 338 0.0 0.0 0.00 0.00 0.00 91 1016.7
20191014114710 13 325 0.0 0.0 0.00 0.00 0.00 92 1016.6
20191014113211 13 329 0.0 0.0 0.00 0.00 0.00 92 1016.4
20191014111700 13 321 0.0 0.0 0.00 0.00 0.00 91 1016.4
20191014110149 13 355 0.0 0.0 0.00 0.00 0.00 91 1016.1
20191014104605 13 80 0.0 0.0 0.00 0.00 0.00 91 1016.0
20191014103210 13 91 0.0 0.0 0.00 0.00 0.00 90 1016.0
20191014101645 13 98 0.0 0.0 0.00 0.00 0.00 90 1016.0
20191014100149 13 97 0.0 0.0 0.00 0.00 0.00 90 1015.8
20191014094707 13 89 0.0 0.0 0.00 0.00 0.00 90 1015.8
20191014093216 13 98 0.0 0.0 0.00 0.00 0.00 90 1015.7
20191014091645 13 93 0.0 0.0 0.00 0.00 0.00 90 1015.7
20191014090139 13 88 0.0 0.0 0.00 0.00 0.00 89 1015.7
20191014084644 13 101 0.0 0.0 0.00 0.00 0.00 90 1015.9
20191014083054 13 94 0.0 0.0 0.00 0.00 0.00 89 1015.6
20191014081614 13 92 0.0 0.0 0.00 0.00 0.00 89 1015.5
20191014080134 13 110 0.0 0.0 0.00 0.00 0.00 89 1015.6
20191014074603 13 112 0.0 0.0 0.00 0.00 0.00 89 1015.7
20191014073137 13 118 0.0 0.0 0.00 0.00 0.00 89 1016.0
20191014071658 13 133 0.0 0.0 0.00 0.00 0.00 89 1016.0
20191014070123 13 192 0.0 0.0 0.00 0.00 0.00 88 1016.3
20191014064610 13 192 0.0 0.0 0.00 0.00 0.00 88 1016.5
20191014063120 13 192 0.0 0.0 0.00 0.00 0.00 87 1016.8
20191014061627 13 196 0.0 0.0 0.00 0.00 0.00 88 1017.0
20191014060107 13 173 0.0 9.7 0.00 0.00 0.00 88 1017.1
20191014054606 13 193 3.2 9.7 0.00 0.00 0.00 88 1017.2
20191014053100 13 180 3.2 11.3 0.00 0.00 0.00 87 1017.4
20191014051634 13 194 3.2 12.9 0.00 0.00 0.00 85 1017.6
20191014050051 14 171 8.0 14.5 0.00 0.00 0.00 83 1017.4
20191014044522 15 175 6.4 14.5 0.00 0.00 0.00 84 1017.6
20191014043034 15 186 4.8 9.7 0.00 0.00 0.00 83 1017.6
20191014041513 15 148 1.6 6.4 0.00 0.00 0.00 83 1017.7
20191014040035 15 223 0.0 0.0 0.00 0.00 0.00 83 1017.7
20191014034540 15 223 0.0 4.8 0.00 0.00 0.00 82 1017.9
20191014033047 15 223 1.6 6.4 0.00 0.00 0.00 82 1017.8
20191014031517 15 186 4.8 11.3 0.00 0.00 0.00 82 1018.2
20191014030019 15 200 3.2 9.7 0.00 0.00 0.00 81 1018.0
20191014024517 15 197 3.2 8.0 0.00 0.00 0.00 80 1018.0
20191014023021 15 161 3.2 8.0 0.00 0.00 0.00 80 1017.9
20191014021508 15 194 6.4 16.1 0.00 0.00 0.00 81 1018.4
20191014020011 15 180 4.8 11.3 0.00 0.00 0.00 80 1018.2
20191014014528 15 196 8.0 12.9 0.00 0.00 0.00 80 1018.3
20191014013022 15 198 6.4 12.9 0.00 0.00 0.00 80 1018.3
20191014011511 15 209 0.0 0.0 0.00 0.00 0.00 79 1018.4